Tracking 35055 objects as of 18-Aug-2026
HD Live streaming from Space Station
objects crossing your sky now

QIANFAN-223

Track QIANFAN-223 now!
10-day predictions
QIANFAN-223 is classified as:


NORAD ID: 69852
Int'l Code: 2026-155E
Launch date: July 5, 2026
Source: People's Republic of China (PRC)
Launch site: Wenchang Satellite Launch Center (WSC)
Your satellite tracking list
Your tracking list is empty




NASA's NSSDC Master Catalog

Two Line Element Set (TLE):
1 69852U 26155E   26229.83793103 -.02088250  00000-0 -19614+1 0  9992
2 69852  89.0041  57.2053 0030863 104.5626 255.8971 13.85545824  6121
Source of the keplerian elements: AFSPC